Location: ????????
(60.4715°N, 46.6753°E)
Time: 17:20:46
(UTC+00:00)

Daily predictions for brighter satellites

Satellite Brightness Start Highest point End
(mag) Time Altitude Azimuth Time Altitude Azimuth Time Altitude Azimuth
USA 234 3.8 13:30:04 10° E 13:36:31 56° SSE 13:42:58 10° WSW
Cosmos 909 Rocket 4.4 13:32:30 10° WNW 13:38:42 54° N 13:45:09 10° ENE
NOAA 6 4.2 13:34:35 10° SSE 13:39:46 83° WSW 13:45:00 10° NNW
Cosmos 2228 3.4 13:36:29 10° NNW 13:40:46 69° W 13:45:02 10° S
Landsat 5 4.2 13:37:46 10° NNE 13:41:15 29° E 13:44:39 10° SSE
IRAS Rocket 4.3 13:35:44 10° NNE 13:41:22 77° ESE 13:46:55 10° SSW
SL-24 R/B 4.4 13:36:53 10° SSE 13:41:33 71° ENE 13:46:49 10° NNW
CZ-2C R/B 3.7 13:37:27 10° ESE 13:42:40 41° NE 13:48:03 10° N
RESURS DK-1 2.5 13:39:44 10° SW 13:43:53 80° NW 13:48:03 10° NE
Cosmos 2082 4.2 13:38:53 10° WSW 13:44:31 58° NW 13:50:10 10° NE
Cosmos 2263 Rocket 2.3 13:41:22 10° SSW 13:47:03 78° SE 13:52:43 10° NE
NOSS 2-2 (D) 3.9 13:43:17 10° WNW 13:47:28 64° N 13:53:05 10° E
ARGOS 4.1 13:44:28 10° ESE 13:48:52 27° NE 13:53:19 10° N
Cosmos 2279 Rocket 4.1 13:42:36 10° NNW 13:48:56 86° WSW 13:55:12 10° S
Genesis I 3.7 13:46:41 10° WNW 13:50:28 46° N 13:54:18 10° ENE
Cosmos 1455 2.3 13:46:56 10° N 13:50:42 52° ENE 13:54:28 10° SSE
YAOGAN 6 3.3 13:48:07 10° S 13:51:43 60° WSW 13:55:23 10° NNW
USA 281 4.3 13:48:46 10° ENE 13:54:08 28° N 13:59:31 10° NW
OPS 0252 4.5 13:52:09 10° WNW 13:55:09 78° NNE 13:58:11 10° ESE
SL-16 R/B 3.9 13:50:07 10° NNE 13:55:36 35° NW 14:01:04 10° WSW
ISS -1.2 13:55:07 10° S 13:56:52 13° SSE 13:58:37 10° SE
Cosmos 1503 Rocket 4.2 13:52:01 10° SW 13:57:25 83° NW 14:02:50 10° NNE
H-2A R/B 2.9 13:53:33 10° NNE 13:57:33 32° E 14:01:28 10° SSE
Cosmos 2221 4.4 13:55:49 10° NNE 13:57:44 13° NE 13:59:34 10° ENE
Meteor 2-10 Rocket 3.7 13:53:11 10° NNW 13:58:45 84° WSW 14:04:01 10° SSE
Cosmos 1606 Rocket 4.4 13:54:26 10° NNW 13:58:46 55° W 14:03:05 10° S
Cosmos 1300 4.3 13:55:38 10° NNW 13:59:14 40° W 14:02:49 10° SSW
CZ-4C R/B 2.5 13:56:25 10° WSW 14:02:02 83° NNW 14:08:46 11° ENE
Cosmos 923 Rocket 4.4 13:59:19 10° NW 14:04:39 70° WSW 14:09:56 10° SSE
NOAA 11 4.3 13:59:16 10° SSE 14:04:47 89° ENE 14:10:20 10° NNW
GENESIS II 4.2 14:05:07 10° WSW 14:09:08 86° SSE 14:12:41 13° ENE
CZ-2D R/B 3.5 14:05:45 10° SE 14:09:25 45° ENE 14:13:05 10° N
Cosmos 1680 Rocket 3.7 14:04:08 10° NW 14:09:25 79° WSW 14:14:38 10° SSE
NOAA 12 4.4 14:04:13 10° S 14:09:26 72° WSW 14:14:44 10° NNW
Cosmos 1626 2.9 14:06:22 10° SSW 14:10:00 53° WNW 14:13:40 10° N
Cosmos 405 3.6 14:07:04 10° N 14:10:22 34° ENE 14:13:38 10° SE
SJ 16-02 2.1 14:06:51 10° S 14:10:50 35° ESE 14:14:51 10° NE
YAOGAN 1 3.2 14:08:17 10° ESE 14:12:13 34° ENE 14:16:09 10° N
Cosmos 1892 Rocket 3.6 14:08:44 10° S 14:13:00 61° E 14:17:19 10° NNE
Cosmos 1674 4.5 14:10:08 10° SW 14:13:37 31° WNW 14:17:06 10° N
Cosmos 1833 Rocket 2.6 14:08:46 10° NW 14:14:26 75° NE 14:20:04 10° SE
Cosmos 1812 Rocket 3.7 14:12:25 10° N 14:16:45 51° ENE 14:21:01 10° SE
Aureole 3 2.6 14:13:20 10° NNW 14:16:46 78° ENE 14:19:48 10° SSE
Cosmos 1048 Rocket 4.4 14:12:27 10° NNW 14:17:18 40° NE 14:22:09 10° ESE
Feng Yun 1-1 Rocket 4.2 14:11:50 10° SSE 14:17:21 71° ENE 14:23:03 10° NNW
Helios 1A Rocket 3.7 14:15:11 10° ESE 14:18:52 32° ENE 14:22:34 10° N
CZ-4C R/B 2.7 14:18:19 10° NNE 14:21:29 63° ESE 14:24:39 10° S
Okean O Rocket 2.0 14:18:12 10° S 14:22:37 70° WSW 14:27:02 10° NNW
Cosmos 1939 Rocket 2.8 14:20:05 10° SSE 14:24:09 81° ENE 14:28:11 10° NNW
H-2A R/B 3.6 14:20:18 10° S 14:24:25 51° WSW 14:28:43 10° NNW
SKYMED 2 4.5 14:22:20 10° NNE 14:26:09 28° E 14:29:56 10° SSE
Cosmos 968 Rocket 4.5 14:22:26 10° WSW 14:27:18 42° NW 14:32:13 10° NNE
SL-08 R/B 4.4 14:23:19 10° N 14:27:43 42° WNW 14:32:09 10° SW
COSMOS 2406 3.3 14:21:57 10° NW 14:27:47 89° SW 14:33:34 10° SE
SMAP 4.0 14:25:02 10° S 14:29:34 52° W 14:34:10 10° NNW
Cosmos 2082 Rocket 2.2 14:25:58 10° NW 14:31:43 66° NE 14:37:24 10° SE
Meteor 2-1 Rocket 4.4 14:26:21 10° NNW 14:31:56 76° WSW 14:37:26 10° S
Okean-O 2.8 14:27:58 10° SE 14:32:15 49° ENE 14:36:33 10° N
SL-14 R/B 4.4 14:29:04 10° SW 14:32:52 46° WNW 14:36:45 10° N
MOS 1 Rocket 3.9 14:30:09 10° NNE 14:33:54 28° E 14:37:38 10° SSE
NOSS 2-2 (C) 3.9 14:31:10 10° WNW 14:35:33 77° NNE 14:41:05 12° ESE
Cosmos 1844 Rocket 2.9 14:32:48 10° SSW 14:38:18 55° ESE 14:43:06 14° NE
CZ-4B R/B 2.2 14:36:27 17° NE 14:38:23 30° E 14:41:20 10° SSE
Cosmos 1844 4.0 14:33:16 10° S 14:38:43 48° ESE 14:43:26 14° NE
H-2A R/B 2.1 14:36:48 10° SE 14:41:49 57° ENE 14:47:00 10° NNW
Cosmos 2219 4.4 14:38:39 10° WNW 14:43:44 31° NNW 14:48:00 14° NE
Cosmos 1092 Rocket 4.1 14:39:24 10° SSE 14:45:16 49° E 14:51:10 10° NNE
Cosmos 1777 Rocket 4.1 14:41:02 10° SW 14:46:21 83° NW 14:51:41 10° NNE
NOSS 3-4 (A) 3.7 14:40:15 10° W 14:46:27 71° N 14:51:32 19° ENE
NOSS 3-4 (C) 3.7 14:40:21 10° W 14:46:33 71° N 14:51:37 19° ENE
Cosmos 2227 Rocket 3.4 14:42:36 10° W 14:47:42 32° NNW 14:51:58 14° NE
Aureole 2 Rocket 2.1 14:45:34 10° SSW 14:48:41 88° WNW 14:50:42 20° NNE
Cosmos 1703 3.5 14:46:40 10° SSE 14:50:22 45° E 14:53:59 11° NNE
CZ-4 R/B 1.2 14:46:46 10° SSE 14:50:45 67° ENE 14:54:40 10° NNW
COSMOS 2455 2.8 14:46:31 10° SW 14:52:33 77° SE 14:57:12 18° NE
ATLAS 5 CENTAUR R/B 1.8 14:48:45 10° WSW 14:53:10 79° NNW 14:56:27 22° ENE
Elektron 1 3.6 14:50:44 10° W 14:53:44 86° N 14:54:58 32° E
SJ-6B 4.1 14:53:58 22° NE 14:53:59 22° NE 14:57:10 10° N
Nadezhda 4 Rocket 3.9 14:48:59 10° S 14:55:11 78° E 15:01:21 10° NNE
SeaSat 1 2.6 14:50:57 13° NE 14:55:25 78° NW 15:00:21 10° SW
Cosmos 389 Rocket 3.3 14:52:19 10° N 14:55:33 30° ENE 14:55:59 29° ENE
EP 3 3.6 14:53:45 10° WNW 14:55:48 79° SSW 14:56:07 58° SE
Cosmos 1818 3.7 14:50:48 10° SW 14:56:09 59° SE 14:59:36 22° ENE
IRS-1C Rocket 4.1 14:51:42 10° SSE 14:56:59 86° WSW 15:02:18 10° NNW
NOSS 2-2 (E) 4.1 14:54:27 10° WNW 14:59:05 87° SSW 15:04:34 14° ESE
NOSS 7 (E) 4.2 14:56:21 10° WSW 14:59:30 74° NNW 15:00:37 35° ENE
Aureole 3 Rocket 2.1 14:56:42 10° NNW 14:59:46 84° ENE 15:03:13 10° SSE
Cosmos 1626 Rocket 3.5 14:55:49 10° S 15:00:12 65° E 15:04:39 10° NNE
CSL-04 Rocket 3.7 14:56:07 10° SE 15:01:30 60° ENE 15:06:58 10° NNW
USA 290 2.7 14:58:46 10° NW 15:01:58 60° WSW 15:05:07 10° SSE
Meteor 2-15 4.4 14:55:55 10° NNW 15:02:06 74° ENE 15:08:16 10° SSE
Meteor 1-24 Rocket 4.4 14:57:32 10° SW 15:02:42 51° WNW 15:07:57 10° NNE
Cosmos 990 Rocket 4.2 14:58:02 10° S 15:03:01 48° ESE 15:06:25 19° NE
Meteor 2-8 Rocket 4.5 14:57:58 10° NNW 15:04:06 86° W 15:10:14 10° S
ATLAS 2AS CENTAUR R/B 3.1 14:56:17 10° W 15:04:13 73° N 15:09:24 22° ENE
Cosmos 2278 Rocket 3.1 15:01:25 10° SSE 15:05:58 26° ESE 15:06:52 24° E
ERS-2 2.7 15:11:07 34° ESE 15:11:07 34° ESE 15:14:16 10° SSE
Cosmos 2297 Rocket 3.5 15:06:14 10° WNW 15:11:10 29° N 15:14:25 18° NE
Cosmos 1346 Rocket 4.2 15:08:25 10° SSE 15:10:23 22° SE 15:10:23 22° SE
NOSS 7 (H) 4.4 15:08:59 10° W 15:11:52 57° NNW 15:12:35 42° NE
deb Kosmos-1763 3.9 15:09:00 10° NNW 15:12:39 84° ENE 15:15:09 19° SE
USA-17 4.4 15:11:18 10° W 15:14:20 58° NNW 15:15:03 43° NE
COSMO-SKYMED 1 2.5 15:10:10 10° NNE 15:14:32 64° ESE 15:18:51 10° S
Landsat 5 4.3 15:13:10 10° N 15:16:58 46° WNW 15:20:39 10° SW
SL-08 RB Rocket 3.7 15:12:38 10° SE 15:17:01 55° ENE 15:21:25 10° N
Cosmos-2242 2.9 15:12:45 10° NNW 15:17:04 89° ENE 15:21:23 10° SSE
USA 234 3.4 15:15:47 23° ESE 15:20:05 68° S 15:26:39 10° W
Iridium 4 Rocket 3.6 15:14:44 10° N 15:20:24 89° E 15:25:35 10° S
ADEOS Rocket 4.3 15:15:04 10° NNE 15:20:29 35° NW 15:25:32 10° WSW
Resurs 01 Rocket 3.2 15:22:01 19° NNE 15:22:01 19° NNE 15:24:16 10° N
CZ-2C R/B 3.8 15:16:50 10° S 15:22:22 61° W 15:28:08 10° NNW
RESURS DK-1 3.8 15:18:48 10° W 15:22:28 29° NNW 15:24:33 19° NNE
Cosmos 44 3.7 15:17:53 10° SSW 15:22:40 50° SE 15:24:33 34° E
Okean 1-7 Rocket 4.3 15:18:18 10° SSW 15:22:49 57° WNW 15:27:22 10° N
Cosmos 1869 3.3 15:19:15 10° N 15:23:03 51° ENE 15:24:11 38° ESE
HJ-1C 3.2 15:20:35 14° SSE 15:23:23 75° ENE 15:26:46 10° NNW
Cosmos 1340 2.5 15:20:25 10° S 15:24:08 68° ESE 15:25:51 30° NNE
Cosmos 1417 Rocket 4.4 15:19:21 10° NNW 15:25:36 75° ENE 15:31:53 10° SSE
SJ-11-01 4.3 15:21:10 10° SSE 15:25:51 84° WSW 15:30:34 10° NNW
Cosmos 1758 Rocket 3.7 15:21:54 10° S 15:26:15 54° E 15:29:38 17° NNE
Genesis I 3.1 15:24:29 10° WNW 15:28:26 74° NNE 15:29:22 49° E
ARGOS 3.1 15:23:12 10° SSE 15:28:36 86° ENE 15:34:02 10° NNW
Cosmos 1553 Rocket 4.0 15:22:29 10° NNW 15:28:58 86° ENE 15:35:21 10° SSE
Ariane Rocket 3.3 15:28:27 34° E 15:29:56 43° ENE 15:34:45 10° NNW
CZ-2C R/B 3.3 15:30:46 33° E 15:30:46 33° E 15:35:30 10° SSE
Cosmos 2026 Rocket 3.9 15:24:29 10° S 15:30:38 72° E 15:36:55 10° NNE
Cosmos 2263 Rocket 3.1 15:26:04 10° W 15:31:27 42° NNW 15:35:16 18° NNE
ISS -1.7 15:30:22 10° SW 15:32:50 19° S 15:33:16 18° SSE
H-2A R/B 2.9 15:29:25 10° NNE 15:33:46 53° WNW 15:38:00 10° SW
Meteor 2-15 Rocket 4.4 15:28:28 10° NNW 15:34:41 88° W 15:40:52 10° S
CZ-3B R/B 4.5 15:34:07 10° SW 15:36:06 15° SSW 15:39:24 10° SSE
Cosmos 2221 2.8 15:32:13 10° N 15:36:27 45° ENE 15:36:27 45° ENE
NOSS 2-1 (E) 4.1 15:34:17 10° SSW 15:36:37 30° SSE 15:36:37 30° SSE
USA 281 3.6 15:35:02 31° E 15:37:31 44° NE 15:43:41 10° NW
Cosmos 1328 3.7 15:33:39 10° SSW 15:37:38 89° ESE 15:40:23 20° NNE
NOSS 2-2 (D) 4.2 15:33:38 10° WNW 15:38:17 73° SSW 15:41:56 25° SE
Meteor 1-11 4.2 15:32:51 10° S 15:38:26 62° E 15:43:59 10° NNE
SL-24 R/B - RUBIN 2 4.5 15:31:46 10° SW 15:38:31 85° SE 15:41:48 32° ENE
Cosmos 909 Rocket 4.1 15:33:22 10° WNW 15:39:41 77° NNE 15:43:07 32° ESE
OBJECT-B 3.5 15:42:35 10° N 15:42:35 10° N 15:42:39 10° N
Cosmos 1602 Rocket 3.7 15:38:55 10° SSW 15:43:18 76° WNW 15:47:45 10° NNE
Cosmos 2315 Rocket 4.1 15:38:10 10° N 15:44:19 54° ENE 15:47:32 28° SE
YAOGAN 1 3.5 15:44:00 10° S 15:48:13 50° W 15:52:28 10° NNW
Cosmos 883 Rocket 4.4 15:42:54 10° NNW 15:49:08 64° ENE 15:53:51 18° SSE
SJ 16-02 2.0 15:45:01 10° SW 15:49:19 52° NW 15:51:53 23° NNE
CZ-4C R/B 2.7 15:45:03 10° W 15:51:04 69° N 15:53:57 38° ENE
Helios 1A Rocket 3.7 15:49:50 10° S 15:53:54 52° WSW 15:57:59 10° NNW
Cosmos 1898 Rocket 3.4 15:48:55 10° SSW 15:54:10 85° ESE 15:56:35 33° NE
S3M 3.9 15:48:41 10° NNW 15:54:51 90° W 16:01:00 10° S
Terra 4.0 15:58:13 13° NNE 15:58:13 13° NNE 15:59:11 10° N
Cosmos 1833 Rocket 4.3 15:53:01 10° NW 15:58:02 34° WSW 16:03:02 10° S
Cosmos 494 Rocket 4.0 15:53:16 10° NW 15:58:26 81° WSW 16:01:06 29° SSE
Cosmos 1825 Rocket 3.4 15:54:15 10° S 15:58:39 75° ESE 15:59:33 55° NNE
Cosmos 1048 Rocket 4.3 15:54:34 10° NW 15:59:40 63° WSW 16:03:53 15° SSE
Cosmos 372 Rocket 4.2 15:55:12 10° S 15:59:46 48° SE 15:59:46 48° SE
Cosmos 1655 Rocket 4.0 15:55:56 10° SSE 16:01:57 55° E 16:08:01 10° NNE
SKYMED 2 4.1 15:58:19 10° NNE 16:02:37 58° WNW 16:06:53 10° SW
Okean-O 4.2 16:04:49 10° SSW 16:08:54 35° W 16:13:00 10° NNW
Cosmos 1833 4.4 16:05:05 10° NW 16:10:37 51° NE 16:11:05 50° NE
CZ-4B R/B 2.9 16:09:33 27° NNW 16:10:39 35° WNW 16:13:41 10° SW
MOS 1 Rocket 3.7 16:08:25 11° N 16:12:30 55° WNW 16:16:41 10° SW
Cosmos 2082 Rocket 3.4 16:10:18 10° NW 16:15:40 42° WSW 16:20:59 10° S
Cosmos 2098 Rocket 4.4 16:08:39 10° SSW 16:16:07 79° WNW 16:23:03 10° NNE
Cosmos 1937 Rocket 3.5 16:13:10 10° SSW 16:18:31 87° WNW 16:20:03 49° NNE
H-2A R/B 3.5 16:16:49 10° SSW 16:21:32 36° W 16:26:24 10° NNW
Cosmos 1844 Rocket 3.3 16:16:47 10° WSW 16:22:20 53° NW 16:24:47 31° NNE
Cosmos 1844 4.2 16:17:11 10° WSW 16:22:51 60° NW 16:25:20 33° NNE
CZ-4 R/B 3.9 16:23:01 10° SW 16:26:10 22° W 16:29:18 10° NW
IRS-1A Rocket 4.3 16:25:44 38° SSE 16:28:12 86° WSW 16:34:05 10° NNW
SJ-6B 3.9 16:29:35 41° NNW 16:29:35 41° NNW 16:32:20 10° NNW
Cosmos 2219 4.3 16:24:24 10° NW 16:29:25 30° NNE 16:29:55 30° NNE
Cosmos 389 Rocket 4.0 16:26:58 10° NNW 16:29:51 36° WNW 16:29:51 36° WNW
Cosmos 1842 Rocket 3.8 16:27:40 10° NNW 16:31:46 66° WNW 16:31:46 66° WNW
SeaSat 1 3.8 16:30:43 25° NNE 16:32:31 33° NNW 16:36:54 10° W
Cosmos 2227 Rocket 3.4 16:28:17 10° NW 16:33:17 30° N 16:33:47 30° NNE
SPOT 3 Rocket 3.9 16:34:33 51° NNE 16:34:33 51° NNE 16:38:38 10° NNW
NOSS 3-4 (A) 3.6 16:31:25 10° WNW 16:37:52 78° NNE 16:38:58 64° E
NOSS 3-4 (C) 3.6 16:31:32 10° WNW 16:37:59 78° NNE 16:39:04 64° E
ATLAS 5 CENTAUR R/B 2.1 16:33:30 10° WNW 16:38:00 63° N 16:38:00 63° N
MetOp-A 4.4 16:36:16 32° S 16:38:46 65° WSW 16:44:08 10° NNW
COSMOS 2455 3.3 16:32:58 10° W 16:38:53 54° NNW 16:40:20 44° NNE
Cosmos 1818 3.7 16:34:21 10° WSW 16:39:48 66° NNW 16:40:15 63° N
Cosmos 1269 Rocket 4.0 16:36:10 10° NW 16:41:30 76° WSW 16:41:41 75° SW
ERS-2 4.0 16:45:41 29° WSW 16:45:41 29° WSW 16:47:53 10° SW
Cosmos 2278 Rocket 2.2 16:43:43 10° SW 16:48:46 71° SSW 16:48:46 71° SSW
COSMO-SKYMED 1 4.5 16:46:49 11° N 16:50:27 28° NW 16:54:11 10° WSW
ATLAS 2AS CENTAUR R/B 2.8 16:48:01 10° WNW 16:55:52 76° NNE 16:56:49 67° ENE
Cosmos 2297 Rocket 3.3 16:51:34 10° NW 16:56:14 33° N 16:56:14 33° N
Resurs 01 Rocket 3.4 16:59:35 24° NNW 16:59:35 24° NNW 17:01:24 10° NNW
USA 234 3.5 17:03:07 53° S 17:03:41 55° SSW 17:10:07 10° W
Cosmos 44 4.0 16:58:49 10° WSW 17:02:59 57° W 17:02:59 57° W
Cosmos 2251 Rocket 4.4 17:03:10 10° NNW 17:06:53 44° NNW 17:06:53 44° NNW
Ariane Rocket 3.7 17:08:38 49° WSW 17:08:55 49° W 17:13:54 10° NNW
Cosmos 2266 Rocket 4.0 17:03:32 10° SSW 17:09:46 78° WNW 17:15:55 10° NNE
CZ-2C R/B 3.2 17:05:40 10° NNE 17:12:14 56° WSW 17:16:46 10° SSW
Cosmos 2221 4.2 17:09:59 10° NNW 17:13:21 33° WNW 17:13:21 33° WNW
Cosmos 2263 Rocket 3.6 17:11:50 10° WNW 17:16:43 29° N 17:16:58 29° N
USA 281 3.2 17:21:54 79° WSW 17:21:54 79° WSW 17:28:23 10° NW
SJ 16-02 3.7 17:25:43 10° WNW 17:28:53 19° NNW 17:28:53 19° NNW
Terra 4.3 17:37:06 15° N 17:37:06 15° N 17:37:56 10° N
CZ-4C R/B 2.9 17:33:34 10° WNW 17:39:08 70° WNW 17:39:08 70° WNW
Cosmos 1844 Rocket 4.4 18:02:23 10° WNW 18:06:27 29° NNW 18:06:27 29° NNW
Cosmos 2227 Rocket 4.0 18:12:58 10° NW 18:15:36 27° NNW 18:15:36 27° NNW
ATLAS 5 CENTAUR R/B 4.2 18:18:06 10° WNW 18:19:32 20° WNW 18:19:32 20° WNW
COSMOS 2455 4.4 18:20:00 10° WNW 18:23:30 32° NW 18:23:30 32° NW
Cosmos 2278 Rocket 4.3 18:28:44 10° W 18:30:40 20° W 18:30:40 20° W
Cosmos 2297 Rocket 4.3 18:35:59 10° NW 18:38:02 23° NW 18:38:02 23° NW
ATLAS 2AS CENTAUR R/B 3.9 18:39:21 10° WNW 18:44:15 41° WNW 18:44:15 41° WNW
Cosmos 1943 Rocket 4.4 23:28:09 19° ENE 23:28:09 19° ENE 23:30:00 10° E
Cosmos 2369 Rocket 4.2 23:40:18 24° ENE 23:40:18 24° ENE 23:43:07 10° E
